| time (UTC) | temp F | wind direction | speed MPH | gust MPH | rain 1hr in | rain 24hr in | rain mn in | humidity % | barometer mb |
| 20260507201544 | 70 | 16 | 5.0 | 17.0 | 0.00 | 0.00 | 0.00 | 73 | 1015.2 |
| 20260507201503 | 70 | 355 | 6.0 | 17.0 | 0.00 | 0.00 | 0.00 | 73 | 1018.1 |
| 20260507200057 | 68 | 5 | 3.0 | 12.0 | 0.00 | 0.00 | 0.00 | 77 | 1017.8 |
| 20260507200042 | 68 | 24 | 4.0 | 12.0 | 0.00 | 0.00 | 0.00 | 77 | 1014.9 |
| 20260507194555 | 67 | 36 | 7.0 | 14.0 | 0.00 | 0.00 | 0.00 | 76 | 1018.2 |
| 20260507194542 | 67 | 25 | 7.0 | 14.0 | 0.00 | 0.00 | 0.00 | 76 | 1015.3 |
| 20260507193107 | 67 | 67 | 4.0 | 13.0 | 0.00 | 0.00 | 0.00 | 77 | 1018.1 |
| 20260507193046 | 67 | 352 | 6.0 | 14.0 | 0.00 | 0.00 | 0.00 | 76 | 1015.2 |
| 20260507191553 | 67 | 339 | 4.0 | 13.0 | 0.00 | 0.00 | 0.00 | 77 | 1018.9 |
| 20260507191541 | 67 | 339 | 5.0 | 13.0 | 0.00 | 0.00 | 0.00 | 76 | 1016.0 |
| 20260507190100 | 66 | 5 | 5.0 | 14.0 | 0.00 | 0.00 | 0.00 | 78 | 1018.4 |
| 20260507190044 | 66 | 352 | 6.0 | 14.0 | 0.00 | 0.00 | 0.00 | 77 | 1015.5 |
| 20260507184549 | 65 | 49 | 7.0 | 16.0 | 0.00 | 0.00 | 0.00 | 78 | 1017.9 |
| 20260507184541 | 65 | 65 | 6.0 | 16.0 | 0.00 | 0.00 | 0.00 | 78 | 1015.1 |
| 20260507183050 | 65 | 65 | 5.0 | 13.0 | 0.00 | 0.00 | 0.00 | 78 | 1018.6 |
| 20260507183047 | 65 | 66 | 4.0 | 11.0 | 0.00 | 0.00 | 0.00 | 78 | 1015.7 |
| 20260507181548 | 64 | 34 | 4.0 | 9.0 | 0.00 | 0.00 | 0.00 | 79 | 1016.1 |
| 20260507180051 | 64 | 55 | 5.0 | 12.0 | 0.00 | 0.00 | 0.00 | 79 | 1019.5 |
| 20260507174546 | 64 | 94 | 5.0 | 13.0 | 0.00 | 0.00 | 0.00 | 78 | 1019.6 |
| 20260507174544 | 64 | 348 | 6.0 | 13.0 | 0.00 | 0.00 | 0.00 | 78 | 1016.8 |
| 20260507173052 | 65 | 94 | 7.0 | 13.0 | 0.00 | 0.00 | 0.00 | 78 | 1019.6 |
| 20260507173042 | 65 | 67 | 7.0 | 13.0 | 0.00 | 0.00 | 0.00 | 78 | 1016.9 |
| 20260507171551 | 65 | 62 | 5.0 | 13.0 | 0.00 | 0.00 | 0.00 | 78 | 1016.9 |
| 20260507171544 | 65 | 57 | 4.0 | 13.0 | 0.00 | 0.00 | 0.00 | 79 | 1019.6 |
| 20260507170049 | 64 | 61 | 6.0 | 16.0 | 0.00 | 0.00 | 0.00 | 80 | 1016.8 |
| 20260507170043 | 64 | 33 | 6.0 | 16.0 | 0.00 | 0.00 | 0.00 | 81 | 1019.4 |
| 20260507164552 | 63 | 18 | 7.0 | 16.0 | 0.00 | 0.00 | 0.00 | 81 | 1017.0 |
| 20260507164542 | 63 | 338 | 7.0 | 16.0 | 0.00 | 0.00 | 0.00 | 82 | 1019.6 |
| 20260507163045 | 62 | 37 | 5.0 | 14.0 | 0.00 | 0.00 | 0.00 | 82 | 1017.0 |
| 20260507163042 | 62 | 61 | 5.0 | 14.0 | 0.00 | 0.00 | 0.00 | 82 | 1019.6 |
| 20260507161543 | 61 | 9 | 7.0 | 16.0 | 0.00 | 0.00 | 0.00 | 82 | 1017.1 |
| 20260507160058 | 61 | 19 | 8.0 | 17.0 | 0.00 | 0.00 | 0.00 | 82 | 1017.0 |
| 20260507160039 | 61 | 53 | 9.0 | 19.0 | 0.00 | 0.00 | 0.00 | 83 | 1019.6 |
| 20260507154547 | 61 | 82 | 10.0 | 17.0 | 0.00 | 0.00 | 0.00 | 83 | 1016.6 |
| 20260507154541 | 61 | 59 | 11.0 | 17.0 | 0.00 | 0.00 | 0.00 | 84 | 1019.4 |
| 20260507153054 | 61 | 67 | 7.0 | 17.0 | 0.00 | 0.00 | 0.00 | 84 | 1016.6 |
| 20260507153045 | 61 | 47 | 7.0 | 17.0 | 0.00 | 0.00 | 0.00 | 84 | 1019.3 |
| 20260507151545 | 61 | 51 | 4.0 | 16.0 | 0.00 | 0.00 | 0.00 | 84 | 1016.8 |
| 20260507151532 | 61 | 46 | 4.0 | 16.0 | 0.00 | 0.00 | 0.00 | 85 | 1019.4 |
| 20260507150045 | 61 | 35 | 6.0 | 18.0 | 0.00 | 0.00 | 0.00 | 84 | 1016.4 |
| 20260507150029 | 61 | 24 | 7.0 | 18.0 | 0.00 | 0.00 | 0.00 | 85 | 1019.1 |
| 20260507144548 | 61 | 18 | 8.0 | 20.0 | 0.00 | 0.00 | 0.00 | 85 | 1016.1 |
| 20260507144526 | 61 | 9 | 7.0 | 20.0 | 0.00 | 0.00 | 0.00 | 85 | 1018.8 |
| 20260507143047 | 61 | 340 | 6.0 | 17.0 | 0.00 | 0.00 | 0.00 | 85 | 1015.8 |
| 20260507143025 | 61 | 15 | 8.0 | 17.0 | 0.00 | 0.00 | 0.00 | 86 | 1018.6 |
| 20260507141552 | 61 | 45 | 6.0 | 14.0 | 0.00 | 0.00 | 0.00 | 86 | 1015.8 |
| 20260507141522 | 61 | 15 | 6.0 | 14.0 | 0.00 | 0.00 | 0.00 | 86 | 1018.4 |
| 20260507140106 | 61 | 36 | 4.0 | 21.0 | 0.00 | 0.00 | 0.00 | 86 | 1016.4 |
| 20260507140021 | 61 | 5 | 5.0 | 14.0 | 0.00 | 0.00 | 0.00 | 86 | 1019.2 |
| 20260507134545 | 62 | 5 | 7.0 | 17.0 | 0.00 | 0.00 | 0.00 | 85 | 1015.9 |
| 20260507134521 | 62 | 19 | 9.0 | 17.0 | 0.00 | 0.00 | 0.00 | 86 | 1018.6 |
| 20260507133044 | 61 | 82 | 5.0 | 16.0 | 0.00 | 0.00 | 0.00 | 85 | 1015.8 |
| 20260507133018 | 61 | 40 | 4.0 | 16.0 | 0.00 | 0.00 | 0.00 | 85 | 1018.6 |
| 20260507131545 | 62 | 51 | 9.0 | 20.0 | 0.00 | 0.00 | 0.00 | 84 | 1016.2 |
| 20260507131514 | 62 | 333 | 8.0 | 18.0 | 0.00 | 0.00 | 0.00 | 84 | 1018.9 |
| 20260507130051 | 62 | 329 | 9.0 | 21.0 | 0.00 | 0.00 | 0.00 | 83 | 1015.8 |
| 20260507130011 | 62 | 27 | 9.0 | 21.0 | 0.00 | 0.00 | 0.00 | 84 | 1018.4 |
| 20260507124549 | 62 | 46 | 9.0 | 18.0 | 0.00 | 0.00 | 0.00 | 82 | 1015.6 |
| 20260507124510 | 62 | 54 | 9.0 | 19.0 | 0.00 | 0.00 | 0.00 | 83 | 1018.2 |
| 20260507123056 | 63 | 327 | 4.0 | 14.0 | 0.00 | 0.00 | 0.00 | 82 | 1015.8 |
| 20260507123006 | 63 | 32 | 3.0 | 14.0 | 0.00 | 0.00 | 0.00 | 82 | 1018.5 |
| 20260507121547 | 63 | 84 | 4.0 | 11.0 | 0.00 | 0.00 | 0.00 | 82 | 1015.6 |
| 20260507121504 | 63 | 62 | 4.0 | 11.0 | 0.00 | 0.00 | 0.00 | 82 | 1018.1 |
| 20260507120046 | 63 | 40 | 5.0 | 15.0 | 0.00 | 0.00 | 0.00 | 82 | 1015.3 |
| 20260507120001 | 63 | 46 | 5.0 | 15.0 | 0.00 | 0.00 | 0.00 | 82 | 1017.8 |
| 20260507114606 | 63 | 29 | 3.0 | 10.0 | 0.00 | 0.00 | 0.00 | 82 | 1017.6 |
| 20260507114550 | 63 | 346 | 4.0 | 10.0 | 0.00 | 0.00 | 0.00 | 82 | 1015.0 |
| 20260507113056 | 63 | 57 | 5.0 | 17.0 | 0.00 | 0.00 | 0.00 | 82 | 1017.3 |
| 20260507113047 | 63 | 27 | 4.0 | 17.0 | 0.00 | 0.00 | 0.00 | 81 | 1014.6 |
| 20260507111553 | 63 | 333 | 4.0 | 15.0 | 0.00 | 0.00 | 0.00 | 82 | 1016.7 |
| 20260507111547 | 63 | 47 | 6.0 | 15.0 | 0.00 | 0.00 | 0.00 | 81 | 1014.0 |
| 20260507110052 | 63 | 26 | 6.0 | 13.0 | 0.00 | 0.00 | 0.00 | 82 | 1016.6 |
| 20260507110046 | 63 | 32 | 6.0 | 13.0 | 0.00 | 0.00 | 0.00 | 81 | 1013.9 |
| 20260507104551 | 63 | 42 | 4.0 | 14.0 | 0.00 | 0.00 | 0.00 | 81 | 1016.5 |
| 20260507104544 | 63 | 13 | 5.0 | 16.0 | 0.00 | 0.00 | 0.00 | 81 | 1013.8 |
| 20260507103050 | 63 | 26 | 3.0 | 14.0 | 0.00 | 0.00 | 0.00 | 82 | 1016.7 |
| 20260507103043 | 63 | 36 | 4.0 | 14.0 | 0.00 | 0.00 | 0.00 | 81 | 1014.0 |
| 20260507101548 | 63 | 55 | 5.0 | 14.0 | 0.00 | 0.00 | 0.00 | 82 | 1016.7 |
| 20260507101546 | 63 | 5 | 3.0 | 14.0 | 0.00 | 0.00 | 0.00 | 82 | 1014.0 |
| 20260507100045 | 64 | 46 | 5.0 | 11.0 | 0.00 | 0.00 | 0.00 | 82 | 1016.6 |
| 20260507100041 | 64 | 348 | 6.0 | 11.0 | 0.00 | 0.00 | 0.00 | 81 | 1013.7 |
| 20260507094547 | 64 | 29 | 3.0 | 10.0 | 0.00 | 0.00 | 0.00 | 81 | 1013.9 |
| 20260507094544 | 64 | 29 | 2.0 | 10.0 | 0.00 | 0.00 | 0.00 | 82 | 1016.6 |
| 20260507093049 | 64 | 19 | 5.0 | 12.0 | 0.00 | 0.00 | 0.00 | 81 | 1014.1 |
| 20260507093043 | 64 | 56 | 5.0 | 12.0 | 0.00 | 0.00 | 0.00 | 82 | 1016.8 |
| 20260507091548 | 64 | 52 | 2.0 | 11.0 | 0.00 | 0.00 | 0.00 | 81 | 1013.9 |
| 20260507091541 | 64 | 49 | 1.0 | 11.0 | 0.00 | 0.00 | 0.00 | 82 | 1016.6 |
| 20260507090047 | 64 | 38 | 4.0 | 12.0 | 0.00 | 0.00 | 0.00 | 81 | 1014.0 |
| 20260507090042 | 64 | 66 | 4.0 | 12.0 | 0.00 | 0.00 | 0.00 | 82 | 1016.7 |
| 20260507084544 | 64 | 38 | 4.0 | 14.0 | 0.00 | 0.00 | 0.00 | 82 | 1014.0 |
| 20260507084539 | 64 | 355 | 6.0 | 14.0 | 0.00 | 0.00 | 0.00 | 82 | 1016.7 |
| 20260507083049 | 64 | 360 | 3.0 | 11.0 | 0.00 | 0.00 | 0.00 | 81 | 1014.0 |
| 20260507083046 | 64 | 19 | 3.0 | 11.0 | 0.00 | 0.00 | 0.00 | 82 | 1016.6 |
| 20260507081542 | 64 | 14 | 2.0 | 9.0 | 0.00 | 0.00 | 0.00 | 81 | 1014.1 |
| 20260507081536 | 64 | 13 | 3.0 | 9.0 | 0.00 | 0.00 | 0.00 | 82 | 1016.7 |
| 20260507080116 | 64 | 5 | 4.0 | 10.0 | 0.00 | 0.00 | 0.00 | 82 | 1014.0 |
| 20260507080040 | 64 | 355 | 5.0 | 10.0 | 0.00 | 0.00 | 0.00 | 82 | 1016.7 |
| 20260507074546 | 64 | 17 | 3.0 | 10.0 | 0.00 | 0.00 | 0.00 | 82 | 1013.9 |
| 20260507074543 | 64 | 350 | 3.0 | 10.0 | 0.00 | 0.00 | 0.00 | 82 | 1016.6 |
| 20260507073050 | 64 | 328 | 3.0 | 10.0 | 0.00 | 0.00 | 0.00 | 82 | 1014.3 |
| 20260507073035 | 64 | 337 | 3.0 | 10.0 | 0.00 | 0.00 | 0.00 | 82 | 1016.9 |
| 20260507071559 | 64 | 15 | 4.0 | 12.0 | 0.00 | 0.00 | 0.00 | 82 | 1014.4 |
| 20260507071552 | 64 | 15 | 4.0 | 8.0 | 0.00 | 0.00 | 0.00 | 82 | 1017.0 |
| 20260507070051 | 64 | 71 | 5.0 | 12.0 | 0.00 | 0.00 | 0.00 | 82 | 1014.4 |
| 20260507070035 | 64 | 67 | 6.0 | 12.0 | 0.00 | 0.00 | 0.00 | 82 | 1017.1 |
| 20260507064554 | 64 | 39 | 6.0 | 15.0 | 0.00 | 0.00 | 0.00 | 82 | 1014.3 |
| 20260507064531 | 64 | 39 | 6.0 | 15.0 | 0.00 | 0.00 | 0.00 | 82 | 1016.8 |
| 20260507063054 | 64 | 25 | 4.0 | 13.0 | 0.00 | 0.00 | 0.00 | 82 | 1014.3 |
| 20260507063032 | 64 | 17 | 4.0 | 12.0 | 0.00 | 0.00 | 0.00 | 82 | 1016.8 |
| 20260507061551 | 65 | 34 | 6.0 | 13.0 | 0.00 | 0.00 | 0.00 | 82 | 1014.2 |
| 20260507061527 | 65 | 52 | 6.0 | 13.0 | 0.00 | 0.00 | 0.00 | 83 | 1016.8 |
| 20260507060047 | 65 | 69 | 5.0 | 11.0 | 0.00 | 0.00 | 0.00 | 82 | 1013.9 |
| 20260507060024 | 65 | 94 | 4.0 | 11.0 | 0.00 | 0.00 | 0.00 | 83 | 1016.4 |
| 20260507054551 | 65 | 32 | 4.0 | 11.0 | 0.00 | 0.00 | 0.00 | 82 | 1013.7 |
| 20260507054522 | 65 | 50 | 4.0 | 11.0 | 0.00 | 0.00 | 0.00 | 83 | 1016.3 |
| 20260507053047 | 65 | 40 | 3.0 | 13.0 | 0.00 | 0.00 | 0.00 | 82 | 1013.6 |
| 20260507053020 | 65 | 55 | 3.0 | 13.0 | 0.00 | 0.00 | 0.00 | 82 | 1016.1 |
| 20260507051544 | 65 | 40 | 6.0 | 16.0 | 0.00 | 0.00 | 0.00 | 81 | 1013.0 |
| 20260507051517 | 65 | 30 | 5.0 | 16.0 | 0.00 | 0.00 | 0.00 | 82 | 1015.4 |
| 20260507050047 | 65 | 51 | 4.0 | 15.0 | 0.00 | 0.00 | 0.00 | 81 | 1013.3 |
| 20260507050014 | 65 | 51 | 4.0 | 15.0 | 0.00 | 0.00 | 0.00 | 82 | 1015.7 |
| 20260507044546 | 65 | 35 | 4.0 | 13.0 | 0.00 | 0.00 | 0.00 | 81 | 1013.1 |
| 20260507044511 | 65 | 5 | 5.0 | 11.0 | 0.00 | 0.00 | 0.00 | 82 | 1015.6 |
| 20260507043047 | 65 | 61 | 4.0 | 13.0 | 0.00 | 0.00 | 0.00 | 82 | 1013.6 |
| 20260507043011 | 65 | 26 | 3.0 | 13.0 | 0.00 | 0.00 | 0.00 | 82 | 1016.0 |
| 20260507041547 | 65 | 348 | 6.0 | 14.0 | 0.00 | 0.00 | 0.00 | 81 | 1013.5 |
| 20260507041508 | 65 | 10 | 6.0 | 11.0 | 0.00 | 0.00 | 0.00 | 82 | 1015.8 |
| 20260507040057 | 65 | 26 | 4.0 | 13.0 | 0.00 | 0.00 | 0.00 | 81 | 1012.9 |
| 20260507040005 | 65 | 52 | 5.0 | 12.0 | 0.00 | 0.00 | 0.00 | 82 | 1015.4 |
| 20260507034552 | 66 | 38 | 5.0 | 14.0 | 0.00 | 0.00 | 0.00 | 81 | 1012.5 |
| 20260507034502 | 66 | 15 | 5.0 | 12.0 | 0.00 | 0.00 | 0.00 | 82 | 1014.8 |
| 20260507033100 | 66 | 28 | 4.0 | 11.0 | 0.00 | 0.00 | 0.00 | 82 | 1014.8 |
| 20260507033048 | 66 | 26 | 3.0 | 10.0 | 0.00 | 0.00 | 0.00 | 81 | 1012.4 |
| 20260507031605 | 66 | 5 | 5.0 | 13.0 | 0.00 | 0.00 | 0.00 | 81 | 1014.5 |
| 20260507031545 | 66 | 338 | 6.0 | 13.0 | 0.00 | 0.00 | 0.00 | 81 | 1012.5 |
| 20260507030057 | 66 | 48 | 4.0 | 13.0 | 0.00 | 0.00 | 0.00 | 81 | 1014.6 |
| 20260507030052 | 66 | 40 | 4.0 | 14.0 | 0.00 | 0.00 | 0.00 | 80 | 1012.4 |
| 20260507024553 | 67 | 349 | 7.0 | 16.0 | 0.00 | 0.00 | 0.00 | 81 | 1014.4 |
| 20260507024542 | 67 | 360 | 6.0 | 16.0 | 0.00 | 0.00 | 0.00 | 80 | 1012.3 |
| 20260507023049 | 67 | 336 | 5.0 | 16.0 | 0.00 | 0.00 | 0.00 | 80 | 1014.3 |
| 20260507023040 | 67 | 352 | 6.0 | 16.0 | 0.00 | 0.00 | 0.00 | 79 | 1012.3 |
| 20260507021547 | 68 | 5 | 5.0 | 16.0 | 0.00 | 0.00 | 0.00 | 79 | 1014.2 |
| 20260507021545 | 68 | 351 | 8.0 | 16.0 | 0.00 | 0.00 | 0.00 | 79 | 1012.0 |
| 20260507020047 | 68 | 334 | 7.0 | 11.0 | 0.00 | 0.00 | 0.00 | 79 | 1013.9 |
| 20260507014542 | 69 | 5 | 5.0 | 14.0 | 0.00 | 0.00 | 0.00 | 77 | 1011.5 |
| 20260507014540 | 69 | 33 | 6.0 | 14.0 | 0.00 | 0.00 | 0.00 | 78 | 1013.5 |
| 20260507013043 | 70 | 55 | 4.0 | 16.0 | 0.00 | 0.00 | 0.00 | 77 | 1010.9 |
| 20260507013039 | 70 | 46 | 4.0 | 16.0 | 0.00 | 0.00 | 0.00 | 77 | 1013.0 |
| 20260507011553 | 71 | 344 | 5.0 | 12.0 | 0.00 | 0.00 | 0.00 | 76 | 1010.7 |
| 20260507011538 | 71 | 338 | 5.0 | 11.0 | 0.00 | 0.00 | 0.00 | 76 | 1013.0 |
| 20260507010045 | 72 | 360 | 6.0 | 12.0 | 0.00 | 0.00 | 0.00 | 74 | 1010.8 |
| 20260507010030 | 72 | 360 | 6.0 | 12.0 | 0.00 | 0.00 | 0.00 | 75 | 1013.1 |
| 20260507004542 | 73 | 350 | 5.0 | 16.0 | 0.00 | 0.00 | 0.00 | 74 | 1010.4 |
| 20260507004526 | 73 | 355 | 5.0 | 16.0 | 0.00 | 0.00 | 0.00 | 74 | 1012.7 |
| 20260507003043 | 74 | 68 | 5.0 | 14.0 | 0.00 | 0.00 | 0.00 | 73 | 1010.3 |
| 20260507003023 | 74 | 52 | 7.0 | 13.0 | 0.00 | 0.00 | 0.00 | 74 | 1012.7 |
| 20260507001555 | 75 | 348 | 6.0 | 12.0 | 0.00 | 0.00 | 0.00 | 72 | 1010.3 |
| 20260507001521 | 75 | 360 | 7.0 | 12.0 | 0.00 | 0.00 | 0.00 | 73 | 1012.4 |
| 20260507000046 | 76 | 46 | 5.0 | 15.0 | 0.00 | 0.00 | 0.00 | 71 | 1010.0 |
| 20260507000019 | 76 | 54 | 5.0 | 15.0 | 0.00 | 0.00 | 0.00 | 72 | 1012.1 |
| 20260506234552 | 77 | 350 | 6.0 | 14.0 | 0.00 | 0.00 | 0.00 | 70 | 1009.6 |
| 20260506234517 | 77 | 67 | 6.0 | 14.0 | 0.00 | 0.00 | 0.00 | 71 | 1011.8 |
| 20260506233048 | 78 | 45 | 6.0 | 15.0 | 0.00 | 0.00 | 0.00 | 71 | 1009.6 |
| 20260506233017 | 78 | 26 | 6.0 | 15.0 | 0.00 | 0.00 | 0.00 | 72 | 1011.5 |
| 20260506231549 | 80 | 80 | 10.0 | 18.0 | 0.00 | 0.00 | 0.00 | 69 | 1009.2 |
| 20260506231515 | 80 | 79 | 10.0 | 18.0 | 0.00 | 0.00 | 0.00 | 70 | 1011.2 |
| 20260506230052 | 81 | 41 | 9.0 | 16.0 | 0.00 | 0.00 | 0.00 | 69 | 1009.0 |
| 20260506230014 | 81 | 347 | 9.0 | 16.0 | 0.00 | 0.00 | 0.00 | 69 | 1011.0 |
| 20260506224543 | 82 | 39 | 8.0 | 15.0 | 0.00 | 0.00 | 0.00 | 69 | 1008.9 |
| 20260506224523 | 82 | 50 | 8.0 | 15.0 | 0.00 | 0.00 | 0.00 | 70 | 1010.9 |
| 20260506223043 | 83 | 53 | 7.0 | 17.0 | 0.00 | 0.00 | 0.00 | 69 | 1008.8 |
| 20260506223013 | 83 | 355 | 7.0 | 17.0 | 0.00 | 0.00 | 0.00 | 70 | 1010.7 |
| 20260506221551 | 84 | 53 | 5.0 | 12.0 | 0.00 | 0.00 | 0.00 | 71 | 1008.4 |
| 20260506221511 | 84 | 27 | 6.0 | 12.0 | 0.00 | 0.00 | 0.00 | 71 | 1010.5 |
| 20260506220058 | 83 | 352 | 7.0 | 17.0 | 0.00 | 0.00 | 0.00 | 70 | 1008.3 |
| 20260506220012 | 83 | 5 | 5.0 | 17.0 | 0.00 | 0.00 | 0.00 | 71 | 1010.4 |
| 20260506214547 | 85 | 19 | 7.0 | 17.0 | 0.00 | 0.00 | 0.00 | 67 | 1008.3 |
| 20260506214511 | 85 | 328 | 7.0 | 17.0 | 0.00 | 0.00 | 0.00 | 68 | 1010.4 |
| 20260506213044 | 88 | 42 | 4.0 | 10.0 | 0.00 | 0.00 | 0.00 | 65 | 1008.2 |
| 20260506213019 | 88 | 49 | 3.0 | 10.0 | 0.00 | 0.00 | 0.00 | 66 | 1010.3 |
| 20260506211547 | 87 | 78 | 1.0 | 8.0 | 0.00 | 0.00 | 0.00 | 65 | 1008.2 |
| 20260506211516 | 87 | 80 | 1.0 | 8.0 | 0.00 | 0.00 | 0.00 | 66 | 1010.3 |
| 20260506210059 | 88 | 138 | 4.0 | 11.0 | 0.00 | 0.00 | 0.00 | 66 | 1008.2 |
| 20260506210010 | 88 | 46 | 4.0 | 11.0 | 0.00 | 0.00 | 0.00 | 66 | 1010.4 |
| 20260506204550 | 88 | 16 | 2.0 | 6.0 | 0.00 | 0.00 | 0.00 | 66 | 1008.4 |
| 20260506204507 | 87 | 17 | 2.0 | 6.0 | 0.00 | 0.00 | 0.00 | 69 | 1010.6 |
| 20260506203130 | 87 | 0 | 3.0 | 8.0 | 0.00 | 0.00 | 0.00 | 65 | 1008.5 |
| 20260506203006 | 87 | 83 | 2.0 | 8.0 | 0.00 | 0.00 | 0.00 | 66 | 1010.7 |